Location: Cactus School
(34.5700°N, 118.0931°W)
Time: 03:32:14
(UTC-07:00)

Courier 1B - Pass Details

Date: 22 April 2024
Orbit: 962 x 1208 km, 28.3° (Epoch: 23 May)

Event Time Altitude Azimuth Distance (km) Brightness Sun altitude
Exits shadow 02:58:16 31° 118° (ESE) 1,791 8.9 -34.1°
Drops below altitude 10° 03:01:58 10° 100° (E) 2,879 10.2 -33.6°
Sets 03:04:42 0° 95° (E) 3,797 11.0 -33.3°
